Content
SEND FEEDBACK

Daily
Averages
Monthly
Summary
France

ORANGE, FRANCE


Home > Europe > France
Elevation: 197 feet     Latitude: 44 08N     Longitude: 004 52E

WEATHER
 
SELECT A DAY
Number of Records: 158,363;   Date Range: 12/3/98 - 11/21/14
 
SHARE

PRINT THIS DATA

[ ← Previous Day ]
WEATHER ALMANAC - NOVEMBER 13, 2013
[ Next Day → ]
[ °C ]   °F
Weather ElementAverageHighLow
Temperature48.9 °F51.8 °F (11:30 am)46.4 °F (12:30 am)
Dewpoint36 °F39.2 °F (9:00 pm)32 °F (1:00 am)
Humidity61.4 %71 % (9:30 pm)54 % (2:00 am)
Barometer30.12 in30.15 in (8:00 pm)30.09 in (3:00 am)
Wind Speed25.3 mph31.1 mph (12:00 pm)
Wind Gust47.2 mph (10:30 am)
Weather ElementAverage
Visibility6.2 mi
Wind DirectionNNW (352.6 °)

Weather ElementTotal
Precipitation---
Heating Degree Days15.9 (Base 65)
Averaged from 47 records on November 13, 2013
WEATHER CONDITIONS BREAKOUT
WIND DIRECTION BREAKOUT
WEATHER BY HOUR - NOVEMBER 13, 2013
[ °C ]   °F
Local TimeTemperatureDewpointHumidityBarometerVisibilityWind DirectionWind SpeedGust SpeedPrecipitationEventsConditions
12:30 AM46.4 °F33.8 °F62 %30.12 in6.2 miNorth (350°)21.9 mph
1:00 AM46.4 °F32.0 °F57 %30.12 in6.2 miNorth (350°)24.2 mph36.8 mph
1:30 AM48.2 °F33.8 °F58 %30.12 in6.2 miNNW (340°)25.3 mph36.8 mph
2:00 AM48.2 °F32.0 °F54 %30.12 in6.2 miNorth (350°)26.5 mph
2:30 AM48.2 °F33.8 °F58 %30.12 in6.2 miNorth (350°)26.5 mph38.0 mph
3:00 AM48.2 °F33.8 °F58 %30.09 in6.2 miNorth (350°)29.9 mph42.6 mph
3:30 AM48.2 °F33.8 °F58 %30.09 in6.2 miNorth (350°)29.9 mph43.7 mph
4:00 AM48.2 °F33.8 °F58 %30.09 in6.2 miNNW (340°)25.3 mph39.1 mph
4:30 AM48.2 °F33.8 °F58 %30.09 in6.2 miNorth (350°)27.6 mph42.6 mph
5:00 AM48.2 °F33.8 °F58 %30.09 in6.2 miNorth (350°)26.5 mph
5:30 AM46.4 °F33.8 °F62 %30.12 in6.2 miNorth (350°)27.6 mph40.3 mph
6:00 AM46.4 °F33.8 °F62 %30.12 in6.2 miNorth (350°)21.9 mph35.7 mph
6:30 AM46.4 °F33.8 °F62 %30.12 in6.2 miNorth (350°)24.2 mph
7:00 AM46.4 °F35.6 °F66 %30.12 in6.2 miNorth (350°)27.6 mph41.4 mph
7:30 AM46.4 °F35.6 °F66 %30.12 in6.2 miNorth (350°)24.2 mph38.0 mph
8:00 AM46.4 °F35.6 °F66 %30.12 in6.2 miNorth (350°)24.2 mph36.8 mph
8:30 AM46.4 °F35.6 °F66 %30.12 in6.2 miNorth (350°)26.5 mph43.7 mph
9:00 AM46.4 °F35.6 °F66 %30.12 in6.2 miNorth (360°)27.6 mph40.3 mph
9:30 AM46.4 °F35.6 °F66 %30.12 in6.2 miNorth (350°)26.5 mph39.1 mph
10:00 AM48.2 °F37.4 °F66 %30.12 in6.2 miNorth (350°)28.8 mph
10:30 AM50.0 °F37.4 °F62 %30.12 in6.2 miNorth (350°)26.5 mph47.2 mph
11:00 AM50.0 °F37.4 °F62 %30.12 in6.2 miNorth (350°)25.3 mph39.1 mph
11:30 AM51.8 °F37.4 °F58 %30.12 in6.2 miNorth (350°)26.5 mph42.6 mph
12:00 PM51.8 °F37.4 °F58 %30.12 in6.2 miNorth (350°)31.1 mph44.9 mph
12:30 PM51.8 °F37.4 °F58 %30.12 in6.2 miNorth (350°)24.2 mph39.1 mph
1:00 PM50.0 °F37.4 °F62 %30.12 in6.2 miNorth (360°)26.5 mph42.6 mph
1:30 PM50.0 °F37.4 °F62 %30.12 in6.2 miNorth (360°)27.6 mph
2:00 PM51.8 °F35.6 °F54 %30.12 in6.2 miNorth (360°)26.5 mph
2:30 PM51.8 °F37.4 °F58 %30.12 in6.2 miNorth (360°)24.2 mph40.3 mph
3:00 PM51.8 °F37.4 °F58 %30.12 in6.2 miNorth (350°)20.7 mph
3:30 PM51.8 °F37.4 °F58 %30.12 in6.2 miNorth (350°)21.9 mph
4:00 PM51.8 °F35.6 °F54 %30.12 in6.2 miNorth (350°)26.5 mph38.0 mph
4:30 PM50.0 °F35.6 °F58 %30.12 in6.2 miNorth (360°)25.3 mph39.1 mph
5:00 PM50.0 °F35.6 °F58 %30.12 in6.2 miNorth (360°)27.6 mph41.4 mph
5:30 PM50.0 °F35.6 °F58 %30.12 in6.2 miNorth (360°)26.5 mph39.1 mph
6:00 PM50.0 °F35.6 °F58 %30.12 in6.2 miNorth (360°)25.3 mph
6:30 PM50.0 °F35.6 °F58 %30.12 in6.2 miNorth (360°)25.3 mph41.4 mph
7:00 PM50.0 °F35.6 °F58 %30.12 in6.2 miNorth (360°)26.5 mph39.1 mph
7:30 PM50.0 °F37.4 °F62 %30.12 in6.2 miNorth (360°)23.0 mph34.5 mph
8:00 PM50.0 °F37.4 °F62 %30.15 in6.2 miNorth (360°)23.0 mph36.8 mph
8:30 PM50.0 °F37.4 °F62 %30.15 in6.2 miNorth (350°)21.9 mph
9:00 PM50.0 °F39.2 °F66 %30.15 in6.2 miNorth (350°)20.7 mph
9:30 PM48.2 °F39.2 °F71 %30.15 in6.2 miNorth (350°)24.2 mph
10:00 PM48.2 °F39.2 °F71 %30.15 in6.2 miNorth (350°)21.9 mph34.5 mph
10:30 PM48.2 °F39.2 °F71 %30.15 in6.2 miNorth (350°)24.2 mph
11:00 PM48.2 °F39.2 °F71 %30.15 in6.2 miNorth (360°)23.0 mph
11:30 PM48.2 °F39.2 °F71 %30.15 in6.2 miNorth (350°)18.4 mph
Hourly data recorded from LFMO, located miles away from Orange, France







STORIES FROM OUR PARTNERS